Temperature
21 20 20 19 19 20 21 22 23 23 22 23 23 22 21 20 20 20 20 20 20 20 19 19 19 19 19 20 20 20 20 19 19 19 19 19 19 19 19 19 19 19 19 19 19 19 19 19 18
21 20 20 20 20 20 22 23 23 23 23 23 23 22 21 20 20 20 20 20 20 20 20 19 19 19 19 20 20 20 20 19 19 19 19 19 19 19 19 19 19 19 19 19 19 19 19 18 18
21 20 20 20 21 21 22 23 23 23 23 23 22 21 21 20 20 20 20 20 20 20 20 19 19 19 20 20 20 20 20 19 19 19 19 19 19 19 19 19 19 19 19 19 19 19 19 18 18
21 20 21 20 22 22 23 23 23 23 23 23 22 21 20 20 20 21 20 20 20 20 19 19 19 19 20 20 19 20 20 19 19 19 19 19 19 19 19 19 19 19 19 19 19 19 19 18 18
21 21 20 21 22 23 23 24 24 23 23 22 21 20 20 20 20 21 20 20 20 20 19 19 19 19 19 19 19 19 19 19 19 19 19 19 19 19 19 19 19 19 19 19 18 18 18 18 18
22 21 20 21 23 24 24 24 23 23 22 22 21 20 20 20 20 20 20 20 20 20 19 19 19 19 19 19 19 19 19 19 19 19 19 19 19 19 19 19 19 19 19 19 19 18 18 18 18
22 20 21 22 23 24 24 24 23 22 22 22 22 20 20 20 20 20 20 20 20 20 20 19 19 19 19 19 19 19 19 19 19 19 19 19 19 19 19 19 19 19 19 19 18 18 18 18 18
22 20 22 22 23 24 24 24 24 23 22 22 22 20 20 20 20 20 20 20 20 20 20 20 19 19 19 19 19 19 19 19 19 19 19 19 19 19 19 19 19 19 19 18 18 18 18 18 18
23 20 22 23 23 24 24 24 24 23 23 22 22 22 21 21 20 20 20 20 20 20 20 20 20 19 19 19 19 19 19 19 19 19 19 19 19 19 19 19 19 19 19 18 18 18 18 18 18
23 21 23 24 24 24 24 24 24 23 22 22 21 21 21 21 20 20 20 20 20 20 20 20 20 20 19 19 19 19 19 19 19 19 19 19 19 19 19 19 19 19 18 18 18 18 18 18 18
23 23 24 25 25 25 25 24 24 23 22 22 21 21 21 21 20 20 21 21 20 20 20 20 20 20 20 19 19 19 19 19 19 19 19 19 19 19 19 19 19 19 18 18 18 18 18 18 18
23 24 25 25 26 25 25 24 23 23 23 23 23 22 21 21 21 21 21 21 20 20 20 20 20 20 20 19 19 19 19 19 19 19 19 19 19 19 19 19 19 18 18 18 18 18 18 18 18
24 25 26 26 26 25 25 24 23 23 24 23 22 22 21 21 21 21 21 21 21 20 20 20 20 20 20 19 19 19 19 19 19 19 18 18 18 18 18 19 18 18 18 18 18 18 18 18 18
25 25 25 26 26 26 24 24 23 23 23 23 22 21 21 21 21 21 21 21 21 20 20 20 20 20 20 19 19 19 19 19 19 19 18 18 18 18 18 18 18 18 18 18 18 18 18 18 18
26 25 25 25 25 25 25 24 23 23 23 22 22 21 21 21 21 21 21 21 21 21 20 20 20 20 20 19 19 19 19 19 19 19 18 18 18 18 18 18 18 18 18 18 18 18 18 18 18
25 24 24 25 25 25 25 24 23 23 23 22 22 21 21 21 21 22 21 21 21 21 21 20 20 20 20 20 19 19 19 19 19 19 18 18 18 18 18 18 18 18 18 18 18 18 18 18 18
24 24 24 25 25 25 24 23 23 23 22 22 21 21 21 21 21 21 21 21 21 21 21 21 20 20 20 20 19 19 19 19 19 19 19 18 18 18 18 18 18 18 18 18 18 18 18 18 18
25 24 25 25 25 24 23 23 22 22 22 22 21 21 21 21 22 22 21 21 21 21 21 21 20 20 20 20 19 19 19 19 19 19 19 19 18 18 18 18 18 18 18 18 18 18 18 18 18
25 25 24 25 25 24 23 22 22 22 22 21 21 21 22 22 22 22 21 21 21 21 21 21 21 20 20 20 19 19 19 19 19 19 19 19 18 18 18 18 18 18 18 18 18 18 18 18 18
25 25 24 25 25 25 23 23 22 22 22 22 22 21 22 22 22 22 21 21 21 21 21 21 21 20 20 20 20 19 19 19 19 19 18 18 18 18 18 18 18 18 18 18 18 18 18 17 17
25 24 25 25 25 24 24 23 22 22 22 22 22 22 22 22 22 22 22 21 21 21 21 21 21 21 20 20 20 19 19 19 19 19 18 18 18 18 18 18 18 18 18 18 18 18 17 17 17
24 25 25 25 24 22 23 22 22 21 21 21 22 22 22 22 22 22 22 22 22 22 21 21 21 21 20 20 20 19 19 19 19 19 18 18 18 18 18 18 18 18 18 18 18 18 17 17 17
25 25 25 24 23 22 22 22 22 21 21 21 21 22 22 22 22 22 23 22 22 22 21 21 21 20 20 20 20 19 19 19 19 19 18 18 18 18 18 18 18 18 18 18 17 17 17 17 17
25 24 23 20 20 22 22 22 21 20 21 21 22 22 22 22 22 22 22 22 22 21 21 21 21 20 20 20 20 19 19 19 19 18 18 18 18 18 18 18 18 18 18 18 17 17 17 17 17
24 22 22 22 21 21 21 21 21 22 21 22 22 22 22 23 22 22 22 22 22 22 21 21 21 20 20 20 20 19 19 19 19 18 18 18 18 18 18 18 18 18 18 17 17 17 17 17 17
23 22 22 23 22 21 21 21 21 22 22 22 23 23 22 22 22 22 23 22 22 22 22 21 21 21 20 20 20 19 19 19 19 18 18 18 18 18 18 18 17 17 17 17 17 17 17 17 17
23 21 21 20 20 21 21 21 21 22 22 22 22 22 22 22 22 23 22 22 22 22 21 21 21 21 20 20 20 19 19 19 19 18 18 18 18 18 18 17 17 17 17 17 17 17 17 16 16
23 20 18 19 20 21 21 21 21 22 21 21 20 20 21 22 22 22 22 22 22 22 21 21 21 20 20 20 20 19 19 19 18 18 18 18 18 17 17 17 17 17 17 17 17 16 16 16 16
23 21 18 17 19 20 21 21 21 21 20 20 20 20 21 22 22 22 22 22 21 21 21 21 20 20 20 20 19 19 19 18 18 18 18 18 17 17 17 17 17 17 17 17 16 16 16 16 16
23 21 19 21 20 18 19 20 21 20 20 20 20 20 21 21 22 22 21 21 21 21 20 20 20 20 20 19 19 18 18 18 18 18 18 17 17 17 17 17 17 17 17 16 16 16 16 16 16
Wind_Speed
8 7 3 1 2 4 3 3 1 3 3 3 4 5 5 3 2 2 1 4 5 4 6 10 11 11 11 11 11 12 13 13 14 14 15 15 15 15 15 15 15 14 13 13 12 12 11 11 10
7 5 1 1 4 4 3 2 2 3 3 4 5 5 6 4 3 5 3 3 6 5 6 9 12 12 12 11 12 12 12 13 13 13 14 14 14 14 14 14 14 13 12 12 12 11 11 10 9
7 3 1 3 3 2 1 1 3 3 4 3 4 5 4 3 3 3 3 6 6 5 6 8 11 11 12 12 11 12 12 12 12 12 12 13 13 13 12 12 12 12 11 11 11 10 9 9 8
3 0 2 4 3 1 1 1 3 4 4 6 4 5 4 3 3 4 7 8 7 5 6 7 11 11 11 11 11 11 11 11 11 11 11 11 12 12 11 11 11 10 10 9 9 8 8 7 7
1 2 4 3 2 1 1 1 3 4 3 4 5 4 3 4 6 9 8 8 6 5 4 7 10 10 10 11 11 11 11 10 9 9 9 9 10 10 10 10 9 9 9 8 7 7 6 6 6
2 3 4 3 3 1 1 2 4 5 4 4 4 4 3 3 7 8 7 6 5 5 4 6 9 10 10 10 10 10 10 9 9 8 8 8 7 8 8 8 8 7 7 6 6 6 5 5 5
2 3 2 0 1 1 1 2 3 4 4 3 4 4 2 3 5 7 6 6 5 4 4 3 5 7 8 8 8 9 8 8 8 7 7 7 6 6 7 7 6 6 6 6 5 4 4 4 4
3 3 2 1 0 1 1 2 2 4 3 3 4 6 4 5 7 8 7 6 5 4 3 3 3 4 5 6 7 7 7 6 6 6 5 5 4 4 4 5 5 5 5 5 5 5 5 4 4
3 3 0 3 3 2 3 3 2 3 6 3 2 3 5 11 11 9 7 5 3 3 2 2 3 3 3 4 5 6 6 5 4 4 3 3 2 1 1 2 3 3 4 4 4 5 5 4 4
3 2 4 4 4 3 4 4 5 4 4 3 4 7 11 12 11 10 8 7 5 3 2 1 2 2 3 3 3 3 3 3 2 2 1 1 1 1 0 1 2 2 3 4 4 4 4 3 2
3 4 3 2 3 4 4 4 4 7 3 4 8 12 13 12 10 9 8 7 6 4 3 2 2 2 2 2 2 2 2 2 2 1 1 1 1 1 1 1 2 2 2 2 2 2 2 2 2
2 4 3 2 2 3 4 5 4 4 4 6 10 14 14 13 11 10 9 7 5 4 4 3 3 2 2 2 1 2 1 1 1 0 1 1 0 1 1 1 2 2 1 2 1 1 2 3 3
2 2 2 1 2 3 4 4 4 2 4 9 11 12 13 12 10 7 7 6 6 5 5 4 3 3 2 2 1 1 1 1 1 1 1 1 1 1 1 1 1 2 1 1 1 1 2 2 2
2 0 1 1 2 2 5 2 3 3 7 10 11 11 11 11 10 8 7 7 6 6 5 5 4 4 3 2 2 1 2 1 1 1 1 1 2 1 0 1 1 2 2 1 1 2 1 2 2
2 3 4 1 1 2 6 1 3 6 9 9 9 10 10 9 9 9 9 8 8 6 5 5 5 4 4 3 2 2 2 2 1 2 2 2 2 2 1 1 1 1 1 1 1 1 1 1 1
4 4 2 3 1 3 5 5 4 8 10 8 8 8 8 8 9 8 8 7 6 6 5 5 5 4 4 3 2 2 2 2 2 2 1 2 3 2 1 1 1 1 1 0 0 1 1 1 1
4 1 2 4 2 3 4 5 3 7 9 9 9 8 8 8 8 7 8 7 7 7 6 5 4 5 4 3 2 2 2 2 2 2 1 2 2 2 1 1 1 1 1 0 1 0 1 1 1
2 1 2 4 2 3 3 5 3 6 9 9 8 8 9 10 10 9 8 8 7 6 5 5 4 4 4 3 2 1 1 0 1 1 2 2 1 1 1 0 1 1 1 1 0 0 0 1 1
3 2 4 5 2 3 4 5 4 6 7 9 9 9 10 10 8 7 7 8 7 6 6 5 5 4 4 3 2 2 1 1 1 1 2 2 1 1 1 0 1 1 0 1 1 0 0 0 0
3 2 3 4 1 2 2 3 3 6 9 9 10 10 10 8 6 7 8 8 8 8 7 6 5 5 4 3 3 2 2 1 1 1 1 1 1 1 1 1 1 0 0 1 1 1 0 0 1
3 5 5 3 2 3 2 5 2 2 3 4 6 7 8 10 10 10 9 9 9 9 8 7 6 5 4 4 3 2 2 1 1 1 1 2 1 1 1 1 1 1 1 1 1 1 1 1 0
4 6 5 3 1 2 2 2 6 3 3 6 7 7 9 9 9 9 9 9 10 9 8 7 6 5 4 4 4 4 3 2 2 1 1 2 1 1 1 2 1 1 1 1 1 1 1 2 1
5 1 2 2 3 2 3 1 7 2 4 8 8 9 9 10 10 10 11 10 8 8 8 7 6 6 5 5 5 4 3 2 1 0 1 1 1 1 1 1 1 1 1 1 1 1 2 2 2
3 6 7 6 5 1 2 2 6 4 6 6 7 8 8 8 9 9 9 7 7 7 7 7 7 6 6 6 5 6 5 4 2 1 1 2 2 1 1 1 1 1 1 2 2 2 2 2 2
5 6 4 5 4 4 2 2 7 6 6 6 7 8 7 7 8 8 9 9 9 9 9 8 8 7 6 7 6 6 6 5 4 3 3 2 1 1 2 1 1 1 2 2 2 2 2 2 2
4 8 7 5 5 5 2 4 7 5 5 3 3 4 5 6 7 9 10 9 9 10 9 9 9 7 7 7 6 5 5 4 4 4 3 3 2 2 2 1 1 1 1 1 1 1 1 1 2
6 4 6 7 3 1 5 6 7 4 4 2 1 2 4 6 7 8 8 7 8 8 8 9 8 7 7 7 6 5 5 4 4 3 3 2 2 2 1 1 2 1 1 1 1 1 1 1 2
5 9 6 6 5 3 5 4 5 6 5 3 2 2 3 4 5 5 6 7 7 7 7 7 7 7 6 7 6 5 5 4 3 3 3 3 3 2 2 2 1 1 1 1 1 1 1 1 2
4 5 5 5 5 6 4 6 5 6 5 5 5 4 4 5 5 5 5 5 5 5 5 6 6 5 5 5 5 5 4 4 3 3 3 3 3 3 2 2 2 2 2 1 1 1 1 1 2
4 6 7 5 4 5 4 7 5 4 4 4 3 3 2 3 3 3 3 4 4 4 4 5 6 5 5 4 4 4 3 3 3 3 3 2 3 3 3 3 3 3 2 2 2 2 2 2 2
Wind_Direction
159 150 151 164 51 45 15 339 18 52 53 54 83 86 97 86 111 140 73 126 125 134 152 148 142 138 133 129 126 125 123 124 127 131 134 137 137 139 142 143 143 142 140 138 137 137 136 135 134
150 157 178 62 67 48 344 332 57 60 115 109 77 71 69 60 60 103 117 128 119 123 136 142 140 137 133 130 127 125 124 125 127 130 135 138 139 140 143 146 145 144 143 142 141 142 142 140 138
165 190 69 60 69 122 275 327 109 92 88 66 69 62 71 84 107 129 143 126 109 108 123 140 136 135 133 129 126 126 125 126 128 130 136 139 140 143 146 148 148 147 147 148 148 147 147 146 145
167 128 48 63 53 274 214 204 126 111 60 46 75 70 62 60 124 127 124 119 114 107 121 141 137 135 131 127 126 126 126 126 128 131 135 139 142 144 145 146 149 150 152 154 155 156 156 156 155
121 69 48 35 10 350 12 128 121 99 78 64 77 85 51 21 91 112 119 120 121 118 124 144 139 135 132 131 127 125 125 128 129 130 132 136 141 145 145 148 152 156 158 162 166 167 167 166 167
52 59 58 16 349 359 23 95 102 91 90 96 94 95 62 74 106 119 117 113 115 115 112 139 142 139 136 135 133 131 131 132 133 133 132 136 141 147 149 153 156 161 163 169 175 180 183 178 181
86 77 84 331 342 349 148 116 116 113 105 116 117 99 87 108 121 117 107 101 100 100 99 112 140 144 141 139 137 137 136 135 135 134 132 132 139 146 154 160 164 173 180 183 188 196 199 195 197
129 89 43 354 182 277 155 122 109 115 114 109 108 131 164 163 129 110 97 91 94 92 92 98 107 115 132 140 139 138 137 136 136 136 135 134 137 145 160 167 176 186 194 196 198 207 217 217 215
121 69 336 219 189 215 150 125 103 91 103 92 89 132 146 136 127 116 108 100 109 120 98 95 100 104 119 135 147 146 144 143 147 144 139 128 107 109 154 184 194 200 208 216 219 222 229 231 228
113 139 227 214 184 173 159 145 147 113 103 92 80 95 122 133 138 141 147 150 155 166 167 128 118 120 119 140 136 132 137 135 136 142 143 103 82 94 171 252 250 233 233 236 232 228 231 235 236
166 203 231 228 175 157 147 136 132 133 163 183 157 144 144 145 151 157 162 164 171 175 173 162 153 141 135 132 126 125 133 136 136 134 131 101 69 6 326 314 309 295 262 261 247 232 230 234 233
192 253 231 223 148 136 148 144 129 161 194 160 153 149 153 159 165 171 171 172 164 164 184 181 169 156 161 155 146 136 135 143 159 194 151 138 95 357 321 306 308 306 276 269 251 244 231 225 226
204 272 278 195 110 129 124 134 136 157 123 123 134 146 160 167 171 173 167 166 164 178 190 190 176 171 170 158 166 147 145 171 205 255 241 193 177 232 293 315 311 303 295 270 253 253 245 226 218
228 43 352 13 103 118 126 112 113 175 135 132 145 158 166 173 173 167 168 174 180 186 189 188 179 182 168 163 163 156 166 193 207 236 252 229 210 224 272 318 315 310 296 260 253 260 251 248 230
45 42 11 12 93 127 115 47 212 172 144 147 159 164 170 179 176 181 184 182 185 187 184 182 180 168 167 174 175 162 170 175 199 240 259 260 248 238 232 256 297 304 302 276 254 272 244 241 234
48 58 352 283 132 137 133 238 228 163 156 167 171 171 177 187 188 188 186 183 181 176 175 179 178 166 168 166 162 149 147 160 195 224 247 265 257 238 213 241 283 292 331 333 233 250 243 255 262
38 40 275 284 206 143 163 241 221 169 168 181 184 183 186 192 196 191 183 184 179 178 174 171 167 162 170 164 152 142 140 164 203 207 217 249 260 254 215 257 291 310 347 312 273 325 164 249 282
249 263 278 261 241 142 196 249 209 183 180 188 193 193 194 199 204 192 183 180 176 173 169 168 164 160 153 147 132 112 114 184 205 214 229 241 248 247 188 252 322 2 22 3 29 103 115 199 248
178 191 272 274 238 157 218 245 217 193 191 192 197 201 203 209 203 184 179 173 169 170 171 174 170 168 155 153 158 157 196 221 234 234 235 237 244 245 168 283 351 4 350 301 294 252 144 27 120
177 222 267 301 6 161 227 279 233 196 206 201 200 205 208 207 193 188 186 180 181 183 183 181 183 175 172 171 163 153 155 198 220 282 297 269 266 267 235 220 249 271 324 332 319 282 198 154 104
211 210 227 234 356 37 49 339 310 249 221 212 207 208 205 204 200 194 191 190 187 190 189 188 185 179 173 158 129 109 81 51 32 331 301 295 279 263 244 225 221 220 200 254 290 188 174 182 129
247 228 208 199 97 323 56 285 289 255 247 229 220 208 209 208 201 195 193 192 195 194 185 181 180 178 171 158 154 158 169 193 224 228 259 295 290 280 263 248 238 232 230 238 246 181 173 170 208
217 158 129 116 128 36 16 144 291 315 261 246 231 215 210 205 196 195 197 196 192 184 182 182 176 177 170 166 169 169 184 203 213 188 292 302 312 311 280 264 259 236 232 231 238 222 180 184 201
153 69 55 49 73 25 261 177 280 251 240 254 235 221 210 202 197 196 194 183 184 180 178 177 177 187 180 174 175 181 187 191 189 212 260 287 298 302 308 304 296 253 237 227 211 217 193 196 197
91 90 34 3 12 254 259 193 251 261 254 238 232 223 209 197 193 192 189 188 189 187 186 182 181 192 187 182 187 191 194 192 199 210 221 243 271 288 295 312 302 290 268 242 217 203 206 198 192
165 140 158 198 219 271 324 234 254 276 287 259 221 203 191 192 193 193 195 194 194 192 188 185 188 195 190 189 195 195 196 197 207 211 214 223 237 254 268 260 265 277 280 275 258 237 242 203 203
139 165 162 138 151 236 286 290 302 316 350 13 80 147 194 199 198 199 194 190 189 189 189 190 190 195 194 195 192 193 195 198 209 216 215 223 237 241 244 250 254 266 262 272 286 270 260 235 237
132 141 104 123 152 237 284 279 265 286 294 299 275 227 218 200 190 188 187 187 186 185 182 178 181 193 196 192 193 195 197 202 202 203 218 228 239 238 235 252 250 259 260 250 238 262 257 236 255
106 103 108 119 150 163 235 266 243 233 236 233 238 233 207 193 189 186 185 181 174 169 173 177 175 177 186 192 189 187 192 194 193 206 224 229 238 232 227 232 235 241 248 248 237 251 245 244 269
157 162 150 156 207 172 182 261 287 239 237 215 230 235 196 178 167 162 157 148 154 168 177 182 175 182 190 176 171 189 192 191 196 215 230 223 230 236 231 229 230 237 241 232 228 238 239 234 253
Height
1494 1495 1496 1498 1500 1507 1509 1502 1496 1496 1496 1496 1496 1497 1499 1502 1505 1510 1505 1504 1504 1504 1505 1507 1509 1511 1512 1513 1514 1515 1516 1516 1517 1518 1519 1521 1522 1524 1526 1528 1529 1531 1533 1534 1536 1538 1539 1540 1542
1495 1496 1498 1498 1505 1517 1512 1500 1498 1497 1497 1497 1498 1499 1500 1502 1503 1504 1504 1505 1505 1504 1505 1507 1510 1512 1513 1515 1516 1517 1518 1518 1519 1520 1521 1523 1524 1526 1528 1529 1531 1533 1534 1536 1537 1539 1540 1541 1542
1496 1497 1499 1501 1509 1516 1510 1500 1498 1498 1498 1498 1500 1501 1503 1504 1505 1505 1506 1507 1507 1507 1508 1510 1512 1514 1515 1516 1517 1518 1519 1520 1521 1522 1523 1525 1526 1528 1529 1530 1532 1534 1535 1537 1538 1540 1541 1542 1543
1497 1499 1501 1505 1510 1506 1502 1499 1498 1499 1499 1500 1501 1504 1505 1507 1507 1507 1508 1509 1510 1510 1511 1512 1514 1516 1517 1518 1519 1520 1521 1522 1523 1524 1525 1526 1528 1529 1530 1532 1533 1535 1537 1538 1539 1541 1542 1543 1544
1498 1500 1505 1511 1508 1503 1499 1499 1499 1499 1500 1502 1502 1505 1507 1509 1509 1509 1510 1511 1512 1513 1514 1515 1516 1518 1519 1520 1521 1522 1523 1524 1525 1526 1527 1528 1529 1531 1532 1533 1535 1536 1537 1539 1540 1541 1543 1544 1545
1500 1501 1513 1517 1509 1502 1500 1499 1500 1501 1502 1503 1504 1506 1509 1510 1510 1511 1512 1514 1515 1516 1517 1518 1519 1520 1521 1522 1523 1524 1525 1526 1527 1528 1529 1530 1531 1532 1533 1535 1536 1537 1538 1539 1541 1542 1543 1544 1545
1503 1506 1513 1513 1510 1505 1501 1500 1501 1502 1503 1504 1505 1507 1509 1511 1512 1513 1514 1516 1517 1518 1519 1520 1521 1522 1523 1524 1525 1526 1527 1528 1529 1530 1531 1532 1533 1534 1535 1536 1537 1538 1539 1540 1541 1542 1543 1544 1545
1502 1506 1511 1512 1510 1506 1501 1501 1502 1503 1504 1506 1506 1508 1510 1512 1513 1515 1516 1517 1519 1520 1521 1521 1522 1523 1524 1525 1526 1527 1528 1529 1531 1532 1533 1534 1535 1536 1536 1537 1538 1539 1539 1540 1541 1542 1543 1544 1545
1503 1510 1515 1509 1507 1504 1501 1502 1503 1504 1504 1506 1507 1508 1509 1512 1514 1516 1517 1519 1520 1521 1522 1523 1524 1525 1526 1527 1528 1529 1530 1531 1532 1533 1534 1535 1536 1537 1538 1538 1539 1540 1540 1540 1541 1542 1543 1544 1545
1503 1512 1507 1500 1499 1499 1500 1501 1503 1504 1506 1507 1508 1509 1511 1512 1514 1516 1517 1519 1521 1522 1524 1525 1525 1526 1527 1528 1529 1530 1531 1532 1533 1534 1535 1536 1537 1537 1538 1539 1539 1540 1540 1540 1541 1542 1543 1544 1545
1502 1505 1499 1497 1497 1498 1499 1501 1502 1504 1507 1506 1507 1509 1511 1513 1515 1517 1519 1520 1522 1524 1525 1526 1527 1528 1528 1529 1530 1531 1531 1533 1534 1535 1536 1536 1537 1538 1539 1539 1540 1540 1540 1541 1541 1541 1542 1543 1544
1501 1499 1497 1496 1496 1498 1499 1501 1503 1503 1504 1505 1507 1509 1511 1513 1515 1517 1519 1521 1523 1524 1526 1527 1528 1529 1529 1530 1531 1532 1532 1533 1534 1535 1536 1537 1537 1538 1539 1539 1540 1540 1540 1541 1541 1541 1542 1543 1543
1500 1498 1496 1496 1496 1498 1499 1501 1502 1504 1505 1506 1508 1510 1512 1513 1516 1519 1521 1523 1524 1525 1526 1527 1528 1529 1530 1531 1532 1532 1533 1534 1535 1536 1536 1537 1537 1538 1538 1539 1539 1540 1540 1540 1540 1540 1541 1542 1542
1498 1498 1497 1497 1497 1498 1500 1502 1503 1504 1505 1506 1508 1511 1512 1514 1517 1519 1521 1523 1524 1525 1527 1528 1529 1530 1531 1531 1532 1533 1533 1534 1535 1536 1536 1537 1538 1538 1538 1538 1539 1539 1539 1540 1540 1540 1540 1540 1541
1498 1500 1499 1498 1498 1499 1501 1506 1503 1503 1505 1507 1509 1511 1513 1515 1517 1518 1520 1522 1524 1526 1527 1528 1530 1530 1531 1532 1533 1533 1534 1535 1536 1536 1537 1537 1538 1538 1538 1538 1538 1538 1539 1539 1539 1539 1539 1539 1539
1500 1506 1510 1501 1499 1499 1505 1512 1502 1503 1505 1507 1509 1511 1513 1515 1516 1518 1521 1523 1525 1526 1527 1529 1530 1531 1532 1533 1533 1534 1535 1536 1537 1537 1538 1538 1538 1538 1538 1538 1538 1538 1537 1537 1537 1537 1537 1538 1538
1510 1516 1514 1505 1499 1500 1504 1508 1502 1503 1504 1506 1508 1510 1512 1514 1516 1518 1520 1522 1524 1526 1527 1529 1530 1531 1532 1533 1534 1535 1536 1537 1537 1538 1538 1538 1538 1538 1538 1538 1537 1537 1536 1536 1536 1536 1536 1536 1536
1516 1516 1513 1510 1500 1502 1506 1506 1502 1503 1504 1506 1508 1509 1511 1512 1513 1516 1518 1521 1523 1525 1527 1529 1530 1531 1532 1533 1534 1535 1536 1537 1537 1538 1538 1538 1538 1538 1538 1537 1537 1536 1535 1535 1534 1535 1534 1535 1535
1505 1510 1513 1506 1499 1503 1506 1505 1503 1502 1503 1505 1506 1507 1509 1510 1513 1515 1517 1520 1522 1524 1526 1528 1529 1530 1532 1533 1534 1535 1536 1537 1537 1537 1538 1538 1538 1538 1537 1537 1536 1536 1535 1534 1533 1533 1533 1533 1534
1505 1510 1511 1505 1499 1502 1506 1505 1501 1501 1501 1501 1503 1504 1507 1509 1511 1513 1516 1518 1520 1522 1524 1526 1528 1530 1531 1532 1533 1535 1536 1536 1537 1537 1537 1537 1537 1537 1537 1536 1536 1535 1534 1533 1532 1532 1531 1532 1533
1505 1508 1507 1507 1503 1503 1506 1510 1505 1501 1501 1502 1503 1503 1505 1506 1508 1510 1513 1515 1517 1520 1522 1524 1527 1528 1530 1532 1533 1534 1535 1535 1536 1536 1536 1536 1537 1536 1536 1535 1535 1534 1533 1532 1531 1531 1530 1530 1532
1507 1498 1500 1503 1511 1519 1513 1529 1510 1504 1503 1501 1500 1501 1502 1503 1505 1507 1510 1512 1514 1517 1521 1523 1525 1527 1529 1530 1532 1532 1533 1534 1534 1535 1535 1535 1535 1535 1535 1534 1534 1533 1532 1531 1531 1531 1530 1530 1530
1497 1493 1498 1503 1512 1521 1519 1527 1519 1507 1506 1500 1497 1498 1498 1500 1502 1504 1506 1509 1512 1515 1518 1521 1523 1525 1527 1529 1530 1531 1532 1533 1533 1534 1534 1534 1534 1534 1533 1533 1532 1532 1531 1531 1530 1530 1530 1529 1529
1491 1498 1504 1513 1521 1533 1524 1528 1525 1511 1503 1497 1494 1494 1495 1497 1500 1502 1505 1508 1510 1513 1516 1518 1521 1523 1525 1526 1528 1529 1530 1531 1531 1532 1532 1532 1532 1532 1532 1531 1531 1530 1530 1529 1529 1528 1528 1528 1528
1495 1512 1532 1534 1542 1538 1523 1526 1521 1500 1495 1493 1491 1491 1493 1495 1497 1499 1502 1504 1507 1510 1512 1515 1517 1520 1522 1524 1525 1527 1528 1529 1529 1530 1530 1530 1530 1530 1530 1530 1529 1529 1528 1528 1527 1527 1526 1526 1526
1499 1508 1532 1542 1545 1537 1524 1526 1509 1494 1491 1489 1489 1490 1491 1493 1494 1496 1499 1501 1504 1506 1509 1512 1514 1517 1519 1521 1523 1524 1526 1527 1527 1528 1528 1528 1528 1528 1528 1527 1527 1527 1526 1526 1525 1525 1524 1523 1523
1499 1508 1508 1527 1533 1538 1531 1519 1503 1491 1489 1489 1489 1489 1489 1490 1492 1494 1497 1499 1502 1504 1507 1509 1512 1514 1516 1518 1520 1522 1523 1524 1525 1525 1526 1526 1526 1526 1525 1525 1525 1524 1524 1523 1523 1522 1522 1521 1520
1490 1501 1516 1528 1540 1543 1531 1524 1515 1498 1494 1491 1490 1489 1488 1489 1490 1493 1495 1497 1499 1502 1505 1507 1510 1512 1514 1516 1518 1519 1520 1521 1522 1523 1523 1523 1523 1523 1523 1523 1522 1522 1521 1520 1520 1519 1519 1518 1518
1496 1503 1513 1525 1527 1539 1541 1527 1498 1495 1492 1490 1489 1488 1487 1488 1489 1491 1494 1496 1498 1501 1503 1505 1507 1510 1511 1513 1515 1516 1517 1518 1519 1520 1520 1521 1521 1520 1520 1520 1519 1519 1518 1518 1517 1516 1516 1515 1515
1489 1496 1507 1518 1525 1530 1534 1523 1491 1490 1488 1488 1488 1487 1487 1488 1489 1491 1493 1495 1498 1500 1501 1503 1504 1507 1509 1510 1512 1514 1514 1515 1515 1516 1517 1518 1518 1518 1518 1517 1517 1516 1515 1515 1514 1513 1513 1512 1511